TimeEST,TemperatureF,Dew PointF,Humidity,Sea Level PressureIn,VisibilityMPH,Wind Direction,Wind SpeedMPH,Gust SpeedMPH,PrecipitationIn,Events,Conditions,WindDirDegrees,DateUTC
12:54 AM,9.0,-6.0,51,30.16,10.0,WSW,6.9,-,N/A,,Clear,250,2013-01-23 05:54:00
1:54 AM,8.1,-5.1,55,30.17,10.0,West,6.9,-,N/A,,Clear,260,2013-01-23 06:54:00
2:54 AM,8.1,-6.0,53,30.19,10.0,West,5.8,-,N/A,,Clear,260,2013-01-23 07:54:00
3:54 AM,8.1,-6.0,53,30.18,10.0,West,3.5,-,N/A,,Clear,260,2013-01-23 08:54:00
4:54 AM,7.0,-5.1,58,30.19,10.0,West,4.6,-,N/A,,Clear,270,2013-01-23 09:54:00
5:54 AM,6.1,-5.1,60,30.19,10.0,SW,3.5,-,N/A,,Clear,230,2013-01-23 10:54:00
6:54 AM,6.1,-5.1,60,30.20,10.0,SW,4.6,-,N/A,,Clear,230,2013-01-23 11:54:00
7:54 AM,6.1,-2.9,67,30.21,10.0,South,3.5,-,N/A,,Clear,190,2013-01-23 12:54:00
8:54 AM,9.0,-2.9,59,30.22,10.0,Variable,6.9,-,N/A,,Clear,0,2013-01-23 13:54:00
9:54 AM,12.0,-2.9,51,30.22,10.0,WNW,9.2,-,N/A,,Clear,300,2013-01-23 14:54:00
10:54 AM,12.9,-4.0,47,30.22,10.0,NW,11.5,-,N/A,,Partly Cloudy,310,2013-01-23 15:54:00
11:54 AM,15.1,-4.0,43,30.19,10.0,NW,10.4,18.4,N/A,,Scattered Clouds,310,2013-01-23 16:54:00
12:54 PM,16.0,-6.0,38,30.15,10.0,NW,10.4,17.3,N/A,,Overcast,320,2013-01-23 17:54:00
1:54 PM,19.0,-5.1,34,30.14,10.0,WNW,12.7,18.4,N/A,,Overcast,290,2013-01-23 18:54:00
2:54 PM,17.1,-6.0,36,30.14,10.0,NW,12.7,20.7,N/A,,Overcast,310,2013-01-23 19:54:00
3:54 PM,16.0,-5.1,39,30.15,10.0,NW,11.5,-,N/A,,Mostly Cloudy,310,2013-01-23 20:54:00
4:54 PM,15.1,-7.1,37,30.16,10.0,WNW,8.1,-,N/A,,Scattered Clouds,290,2013-01-23 21:54:00
5:54 PM,12.9,-6.0,43,30.17,10.0,West,4.6,-,N/A,,Partly Cloudy,280,2013-01-23 22:54:00
6:54 PM,12.0,-4.0,49,30.19,10.0,WNW,3.5,-,N/A,,Clear,290,2013-01-23 23:54:00
7:54 PM,8.1,-0.9,67,30.18,10.0,Calm,Calm,-,N/A,,Clear,0,2013-01-24 00:54:00
8:54 PM,6.1,-0.0,76,30.17,10.0,Calm,Calm,-,N/A,,Clear,0,2013-01-24 01:54:00
9:54 PM,5.0,-0.0,80,30.17,10.0,SW,3.5,-,N/A,,Clear,230,2013-01-24 02:54:00
10:54 PM,5.0,-0.9,76,30.17,10.0,Calm,Calm,-,N/A,,Clear,0,2013-01-24 03:54:00
11:54 PM,3.9,-0.9,80,30.17,10.0,Calm,Calm,-,N/A,,Clear,0,2013-01-24 04:54:00